Regional Weather Roundup
Issued by NWS

Home | Current Version | Previous Version | Text Only | Print | Product List | Glossary Off
Versions: 1 2 3 4 5 6 7 8 9 10 11 12 13 14 15 16 17 18 19 20 21 22 23 24 25 26 27 28 29 30 31 32 33 34 35 36 37 38 39 40 41 42 43 44 45 46 47 48 49 50

000
ASUS45 KCYS 191610
RWRWY

WYOMING REGIONAL WEATHER ROUNDUP
NATIONAL WEATHER SERVICE CHEYENNE WY
1000 AM MDT SUN APR 19 2015

NOTE:  "FAIR" INDICATES FEW OR NO CLOUDS BELOW 12,000 FEET
WITH NO SIGNIFICANT WEATHER AND/OR OBSTRUCTIONS TO VISIBILITY.

WYZ001-191700-
YELLOWSTONE NATIONAL PARK

CITY           SKY/WX    TMP DP  RH WIND       PRES   REMARKS
LK YELLOWSTONE   N/A     30  17  58 VRB3      30.20F
W YELLOWSTONE  NOT AVBL

$$
WYZ002>013-054>058-071-098>099-191700-
NORTHERN WYOMING

CITY           SKY/WX    TMP DP  RH WIND       PRES   REMARKS
JACKSON        FAIR      39  19  45 N5        30.18F
CODY           FAIR      41  27  56 CALM      30.21F
GREYBULL       FAIR      46  20  35 N14       30.21F
WORLAND        FAIR      45  23  42 N13       30.21F
SHERIDAN       FAIR      44  22  41 NW24G30   30.20F
BUFFALO        FAIR      42  20  41 N24G37    30.17F
GILLETTE       FAIR      40  22  48 NW23G32   30.14F WCI  30
HULETT         PTSUNNY   41  27  56 NW15G30   30.12F
NEWCASTLE      FAIR      37  23  56 NW23G30   30.13F WCI  26

$$
WYZ014>020-022>026-101>103-191700-
CENTRAL WYOMING

CITY           SKY/WX    TMP DP  RH WIND       PRES   REMARKS
BIG PINEY      FAIR      39  25  57 S13       30.19F WCI  31
PINEDALE       PTSUNNY   36  27  69 S5        30.19F WCI  32
DUBOIS         FAIR      36  23  60 E3        30.16F
LANDER         CLOUDY    38  26  62 SE8       30.20F WCI  32
RIVERTON       CLOUDY    40  21  46 N10       30.21F WCI  33
CASPER         FAIR      39  25  57 MISG      30.18F
DOUGLAS        PTSUNNY   40  27  59 NW22G28   30.17F WCI  30

$$
WYZ021-027>030-104>119-191700-
SOUTHERN WYOMING

CITY           SKY/WX    TMP DP  RH WIND       PRES   REMARKS
EVANSTON       CLOUDY    39  31  72 E7        30.16F WCI  34
KEMMERER       CLOUDY    36  30  80 E8        30.18F WCI  29
FORT BRIDGER   CLOUDY    39  32  75 E5        30.20S
ROCK SPRINGS   CLOUDY    35  28  75 E12       30.20F WCI  27
DIXON          CLOUDY    37  21  52 NW5       30.21F WCI  33
RAWLINS        CLOUDY    35  20  54 VRB5      30.18F WCI  31
SARATOGA       CLOUDY    32  27  80 NW7       30.19S WCI  26
LARAMIE        FAIR      28  21  75 NW13      30.13F WCI  17
CHEYENNE       CLOUDY    34  22  61 N18G24    30.12F WCI  23
TORRINGTON     PTSUNNY   43  25  49 NW22G31   30.13F
PINE BLUFFS    PTSUNNY   37  27  65 NW21G29   30.12F WCI  27

$$



USA.gov is the U.S. government's official web portal to all federal, state and local government web resources and services.